Voltar ao catálogo

DELTA 1 DEB

AtivoSSO
NORAD 2223·DEBRIS·🇺🇸 United States

Lançado Feb 28, 1966 de Cape Canaveral Space Force Station

Loading…

Próximas Passagens (próximas 24 horas)

TLE

AtualizadoSource: Space-Track

Época: Sep 14, 2026, 00:26 UTC

1 02223U 66016C   26257.01858163 -.00000031  00000-0  46742-4 0  9994
2 02223 100.7252 282.3229 0093925  22.7355   7.1861 12.87776937838399

Acompanhe DELTA 1 DEB em tempo real com AllMySat

Download on the App Store